KI0IO-2 Weather Reports


time (UTC)temp
C
wind
direction
speed
KPH
gust
KPH
rain 1hr
cm
rain 24hr
cm
rain mn
cm
humidity
%
barometer
mb
20260505040506 10 244 3.2 11.3 0.00 0.15 0.15 78 1005.5
20260505040005 10 244 4.8 11.3 0.00 0.15 0.15 78 1005.4
20260505035506 10 244 3.2 8.0 0.00 0.15 0.15 78 1005.4
20260505035005 10 244 3.2 8.0 0.00 0.15 0.15 79 1005.4
20260505034505 10 244 1.6 12.9 0.00 0.15 0.15 79 1005.4
20260505034006 10 244 4.8 12.9 0.00 0.15 0.15 79 1005.4
20260505033506 10 254 4.8 11.3 0.00 0.15 0.15 80 1005.4
20260505033005 10 281 1.6 4.8 0.00 0.15 0.15 79 1005.3
20260505032506 10 282 0.0 0.0 0.00 0.15 0.15 79 1005.4
20260505032006 10 282 0.0 4.8 0.00 0.15 0.15 79 1005.2
20260505030505 9 282 1.6 4.8 0.00 0.15 0.15 82 1005.2
20260505030005 9 282 1.6 4.8 0.00 0.15 0.15 83 1005.1
20260505025505 9 282 1.6 4.8 0.00 0.15 0.15 83 1004.9
20260505025005 9 282 1.6 4.8 0.00 0.15 0.15 84 1004.7
20260505024505 9 282 0.0 3.2 0.00 0.15 0.15 84 1004.5
20260505024005 9 282 0.0 3.2 0.00 0.15 0.15 84 1004.3
20260505023505 9 282 0.0 4.8 0.00 0.15 0.15 83 1004.3
20260505022505 9 282 1.6 8.0 0.03 0.15 0.15 83 1004.1
20260505022005 10 282 1.6 8.0 0.03 0.15 0.15 82 1004.0
20260505021506 10 282 0.0 9.7 0.03 0.15 0.15 81 1003.8
20260505021005 10 282 3.2 9.7 0.05 0.15 0.15 81 1003.8
20260505020505 10 278 3.2 16.1 0.05 0.15 0.15 80 1003.6
20260505020005 10 284 4.8 16.1 0.05 0.15 0.15 80 1003.7
20260505015505 10 294 8.0 16.1 0.05 0.15 0.15 81 1003.9
20260505015006 9 273 9.7 16.1 0.05 0.15 0.15 82 1003.9
20260505013505 9 200 4.8 14.5 0.08 0.15 0.15 81 1003.7
20260505013005 10 215 6.4 14.5 0.08 0.15 0.15 81 1003.8
20260505012505 9 217 8.0 16.1 0.05 0.13 0.13 81 1003.9
20260505012006 9 217 9.7 16.1 0.05 0.13 0.13 81 1003.8
20260505011505 10 232 4.8 20.9 0.05 0.13 0.13 81 1003.9
20260505011005 10 251 6.4 20.9 0.05 0.13 0.13 80 1004.0
20260505010505 10 272 12.9 20.9 0.03 0.10 0.10 79 1004.1
20260505005505 10 294 11.3 19.3 0.03 0.10 0.10 79 1004.0
20260505005005 10 289 11.3 19.3 0.03 0.10 0.10 78 1004.0
20260505004505 10 285 9.7 24.1 0.03 0.10 0.10 77 1003.9
20260505004005 10 295 11.3 25.7 0.00 0.08 0.08 76 1003.8
20260505003505 11 299 12.9 25.7 0.00 0.08 0.08 75 1003.9
20260505003005 11 308 12.9 25.7 0.00 0.08 0.08 73 1003.7
20260505002505 11 313 11.3 20.9 0.03 0.08 0.08 72 1003.7
20260505002006 11 316 6.4 19.3 0.05 0.08 0.08 72 1003.7
20260505001505 11 299 9.7 19.3 0.05 0.08 0.08 72 1003.5
20260505001005 11 307 8.0 19.3 0.08 0.08 0.08 73 1003.4
20260505000505 12 306 6.4 14.5 0.08 0.08 0.08 74 1003.4
20260505000006 11 287 8.0 12.9 0.08 0.08 0.08 75 1003.4
20260504235506 12 261 0.0 4.8 0.08 0.08 0.08 77 1003.2
20260504235005 12 261 0.0 1.6 0.08 0.08 0.08 75 1003.1
20260504234505 12 261 0.0 1.6 0.08 0.08 0.08 71 1003.2
20260504234006 12 261 0.0 4.8 0.08 0.08 0.08 71 1003.2
20260504233505 12 261 0.0 4.8 0.08 0.08 0.08 71 1003.2
20260504233005 12 261 0.0 16.1 0.08 0.08 0.08 66 1003.2
20260504232505 12 261 1.6 19.3 0.05 0.05 0.05 64 1003.4
20260504232006 13 275 12.9 32.2 0.03 0.03 0.03 59 1003.3
20260504231505 13 260 16.1 32.2 0.03 0.03 0.03 59 1003.3
20260504231005 15 258 17.7 32.2 0.00 0.00 0.00 50 1003.0
20260504230505 16 258 11.3 20.9 0.00 0.00 0.00 45 1002.6
20260504230005 15 284 9.7 20.9 0.00 0.00 0.00 44 1002.4
20260504225505 15 293 11.3 20.9 0.00 0.00 0.00 45 1002.1
20260504225005 15 285 8.0 20.9 0.00 0.00 0.00 45 1002.1
20260504224505 16 289 11.3 22.5 0.00 0.00 0.00 44 1001.9
20260504224005 16 302 9.7 29.0 0.00 0.00 0.00 44 1001.7
20260504223505 16 304 14.5 29.0 0.00 0.00 0.00 43 1001.7
20260504222505 17 304 11.3 25.7 0.00 0.00 0.00 41 1001.7
20260504222005 17 324 8.0 25.7 0.00 0.00 0.00 41 1001.6
20260504221005 17 349 8.0 16.1 0.00 0.00 0.00 42 1001.5
20260504220505 17 42 8.0 16.1 0.00 0.00 0.00 42 1001.6
20260504220005 17 55 9.7 16.1 0.00 0.00 0.00 41 1001.7
20260504215505 17 338 3.2 14.5 0.00 0.00 0.00 41 1001.8
20260504215005 17 7 9.7 14.5 0.00 0.00 0.00 40 1001.9
20260504214005 17 26 3.2 8.0 0.00 0.00 0.00 41 1002.1
20260504213005 16 35 1.6 11.3 0.00 0.00 0.00 42 1002.0
20260504212505 16 61 3.2 11.3 0.00 0.00 0.00 41 1001.8
20260504212006 16 5 1.6 8.0 0.00 0.00 0.00 43 1002.0
20260504211505 16 21 1.6 11.3 0.00 0.00 0.00 43 1002.1
20260504210005 16 327 8.0 32.2 0.00 0.00 0.00 43 1002.2
20260504205504 16 345 9.7 32.2 0.00 0.00 0.00 42 1002.2
20260504205005 17 31 9.7 33.8 0.00 0.00 0.00 42 1002.1
20260504204005 17 341 11.3 40.2 0.00 0.00 0.00 40 1001.8
20260504203506 17 3 11.3 40.2 0.00 0.00 0.00 38 1001.6
20260504203005 17 348 8.0 32.2 0.00 0.00 0.00 37 1001.4
20260504202505 17 357 12.9 32.2 0.00 0.00 0.00 37 1001.2
20260504202005 17 48 16.1 32.2 0.00 0.00 0.00 37 1001.1
20260504201505 16 26 16.1 32.2 0.00 0.00 0.00 39 1001.2
20260504201005 16 35 9.7 38.6 0.00 0.00 0.00 40 1001.3
20260504200505 16 34 16.1 46.7 0.00 0.00 0.00 38 1001.3
20260504200005 17 43 22.5 46.7 0.00 0.00 0.00 37 1001.2
20260504195504 17 44 16.1 35.4 0.00 0.00 0.00 35 1001.1
20260504195006 18 34 11.3 32.2 0.00 0.00 0.00 33 1001.1
20260504194506 19 2 8.0 32.2 0.00 0.00 0.00 28 1001.1
20260504194004 19 24 9.7 41.8 0.00 0.00 0.00 25 1000.7
20260504193504 19 33 20.9 41.8 0.00 0.00 0.00 25 1001.0
20260504193004 19 336 12.9 37.0 0.00 0.00 0.00 24 1000.7
20260504192504 19 340 17.7 37.0 0.00 0.00 0.00 24 1000.7
20260504192004 19 326 16.1 33.8 0.00 0.00 0.00 24 1000.8
20260504191505 19 292 9.7 38.6 0.00 0.00 0.00 29 1000.7
20260504191006 19 277 19.3 41.8 0.00 0.00 0.00 29 1000.8
20260504185504 20 285 20.9 35.4 0.00 0.00 0.00 28 1000.8
20260504184505 20 302 17.7 32.2 0.00 0.00 0.00 28 1000.9
20260504184004 20 300 12.9 29.0 0.00 0.00 0.00 28 1000.7
20260504183505 20 285 16.1 29.0 0.00 0.00 0.00 26 1000.8
20260504183005 20 293 9.7 19.3 0.00 0.00 0.00 27 1000.8
20260504182504 20 260 8.0 24.1 0.00 0.00 0.00 27 1000.8
20260504182005 20 237 6.4 24.1 0.00 0.00 0.00 28 1000.8
20260504181504 20 237 9.7 24.1 0.00 0.00 0.00 27 1000.8
20260504181004 20 232 9.7 19.3 0.00 0.00 0.00 27 1000.9
20260504180506 20 231 11.3 19.3 0.00 0.00 0.00 28 1000.9
20260504175505 20 213 9.7 20.9 0.00 0.00 0.00 29 1001.0
20260504174504 20 235 4.8 14.5 0.00 0.00 0.00 27 1001.1
20260504174006 20 223 8.0 16.1 0.00 0.00 0.00 26 1001.2
20260504173504 20 248 8.0 16.1 0.00 0.00 0.00 26 1001.3
20260504173004 20 248 8.0 16.1 0.00 0.00 0.00 27 1001.4
20260504172506 20 251 8.0 19.3 0.00 0.00 0.00 26 1001.3
20260504172004 20 274 9.7 20.9 0.00 0.00 0.00 26 1001.5
20260504171506 20 265 11.3 22.5 0.00 0.00 0.00 26 1001.4
20260504171005 20 273 12.9 22.5 0.00 0.00 0.00 26 1001.5
20260504170504 20 276 4.8 20.9 0.00 0.00 0.00 27 1001.4
20260504151004 16 275 4.8 11.3 0.00 0.00 0.00 29 1001.6
20260504150505 16 200 1.6 11.3 0.00 0.00 0.00 38 1001.6
20260504141006 12 37 1.6 4.8 0.00 0.00 0.00 40 1001.9
20260504140506 11 38 0.0 3.2 0.00 0.00 0.00 43 1002.0
20260504130506 10 302 1.6 8.0 0.00 0.00 0.00 44 1002.0
20260504110505 8 311 0.0 9.7 0.00 0.00 0.00 38 1002.2
20260504100506 8 321 3.2 8.0 0.00 0.00 0.00 37 1002.1
20260504082005 10 304 0.0 3.2 0.00 0.00 0.00 40 1002.8
20260504081505 10 304 0.0 8.0 0.00 0.00 0.00 40 1002.8
20260504081006 10 304 1.6 8.0 0.00 0.00 0.00 40 1002.9
20260504080505 10 302 0.0 4.8 0.00 0.00 0.00 40 1003.0
20260504050505 13 54 0.0 0.0 0.00 0.00 0.00 36 1003.6
20260504050005 13 54 0.0 0.0 0.00 0.00 0.00 36 1003.5
20260504045505 13 54 0.0 3.2 0.00 0.00 0.00 35 1003.6
20260504045005 14 54 0.0 3.2 0.00 0.00 0.00 34 1003.6
20260504044506 15 54 0.0 3.2 0.00 0.00 0.00 33 1003.7
20260504044005 15 54 0.0 3.2 0.00 0.00 0.00 32 1003.6
20260504043506 15 54 0.0 3.2 0.00 0.00 0.00 30 1003.7
20260504043005 15 54 0.0 4.8 0.00 0.00 0.00 28 1003.6
20260504042505 15 54 0.0 11.3 0.00 0.00 0.00 28 1003.7
20260504041006 15 59 3.2 11.3 0.00 0.00 0.00 31 1003.8